Location: The Saddle
(36.8333°N, 80.3417°W)
Time: 08:32:32
(UTC-05:00)

X-37B - Pass Details

Date: 04 December 2022
Orbit: 277 x 277 km, 45.0° (Epoch: 01 November)

Event Time Altitude Azimuth Distance (km) Brightness Sun altitude
Rises 18:26:54 0° 211° (SSW) 1,898 4.8 -16.1°
Reaches altitude 10° 18:29:05 10° 192° (SSW) 1,091 3.2 -16.5°
Enters shadow 18:30:16 17° 165° (SSE) 794 2.1 -16.7°
